Laurinburg-Maxton, NC

5:46 PM EDT on July 20, 2017 (GMT -0400)
Laurinburg-Maxton

Weather History for KMEB - May, 2014

Change the Weather History Date:

Thursday, May 29, 2014

  Actual Average (KHFF) Record (KHFF)
Temperature  
Mean Temperature 78 °F -  
Max Temperature 89 °F 82 °F 90 °F (2007)
Min Temperature 68 °F 63 °F 55 °F (2003)
Cooling Degree Days 13    
Growing Degree Days 28 (Base 50)    
Moisture  
Dew Point 67 °F    
Average Humidity 77    
Maximum Humidity 97    
Minimum Humidity 46    
Precipitation  
Precipitation 0.75 in - - ()
Sea Level Pressure  
Sea Level Pressure 30.04 in    
Wind  
Wind Speed 5 mph (SW)    
Max Wind Speed 14 mph    
Max Gust Speed -    
Visibility 7 miles    
Events Fog , Rain , Thunderstorm    
Averages and records for this station are not official NWS values.
T = Trace of Precipitation, MM = Missing Value Source: NWS Daily Summary

Daily Weather History Graph

Daily Weather History Graph

Search for Another Location

Airport or City:

Trip Planner

Search our weather history database for the weather conditions in past years. The results will help you decide how hot, cold, wet, or windy it might be!

Date:

Astronomy

May. 29, 2014 Rise Set
Actual Time 6:06 AM EDT 8:23 PM EDT
Civil Twilight 5:37 AM EDT 8:52 PM EDT
Nautical Twilight 5:01 AM EDT 9:28 PM EDT
Astronomical Twilight 4:23 AM EDT 10:06 PM EDT
Moon 6:56 AM EDT (5/29) 9:14 PM EDT (5/29)
Length of Visible Light 15h 15m
Length of Day
14h 17m
New Moon, 1% of the Moon is Illuminated
May 29
New Moon
Jun 5
First Quarter
Jun 13
Full
Jun 19
Last Quarter
Jun 27
New

Hourly Weather History & Observations

Time (EDT) Temp. Heat Index Dew Point Humidity Pressure Visibility Wind Dir Wind Speed Gust Speed Precip Events Conditions
12:52 AM 73.9 °F - 64.0 °F 71% 30.01 in 10.0 mi West 6.9 mph - N/A   Clear
1:52 AM 72.0 °F - 64.0 °F 76% 29.99 in 10.0 mi West 5.8 mph - N/A   Clear
2:52 AM 71.1 °F - 64.0 °F 78% 29.99 in 10.0 mi WSW 3.5 mph - N/A   Clear
4:52 AM 68.0 °F - 64.0 °F 87% 29.98 in 9.0 mi West 6.9 mph - N/A   Clear
5:52 AM 68.0 °F - 64.0 °F 87% 29.99 in 10.0 mi Calm Calm - N/A   Clear
6:52 AM 69.1 °F - 64.0 °F 84% 30.02 in 8.0 mi Calm Calm - N/A   Clear
7:52 AM 72.0 °F - 64.9 °F 78% 30.03 in 9.0 mi SW 5.8 mph - N/A   Clear
8:52 AM 75.9 °F - 66.0 °F 71% 30.04 in 9.0 mi Variable 4.6 mph - N/A   Clear
9:52 AM 80.1 °F 82.3 °F 66.9 °F 64% 30.05 in 10.0 mi NNW 4.6 mph - N/A   Clear
10:52 AM 82.9 °F 85.4 °F 66.9 °F 58% 30.06 in 10.0 mi East 4.6 mph - N/A   Clear
11:52 AM 86.0 °F 88.8 °F 66.9 °F 53% 30.06 in 10.0 mi ESE 5.8 mph - N/A   Clear
12:52 PM 88.0 °F 90.7 °F 66.9 °F 49% 30.05 in 10.0 mi ENE 4.6 mph - N/A   Partly Cloudy
1:37 PM 88.0 °F 89.6 °F 64.9 °F 46% 30.04 in 10.0 mi North - - N/A Thunderstorm Clear
1:52 PM 88.0 °F 89.6 °F 64.9 °F 46% 30.03 in 10.0 mi Calm Calm - N/A   Scattered Clouds
2:06 PM 88.0 °F 89.6 °F 64.9 °F 46% 30.04 in 10.0 mi East 6.9 mph - N/A Thunderstorm Mostly Cloudy
2:31 PM 81.0 °F 84.1 °F 69.1 °F 67% 30.03 in 8.0 mi West 13.8 mph - N/A Thunderstorm Thunderstorm
2:37 PM 80.1 °F 82.9 °F 69.1 °F 69% 30.03 in 1.5 mi SSW 8.1 mph - 0.09 in Rain , Thunderstorm Heavy Thunderstorms and Rain
2:52 PM 81.0 °F 83.3 °F 66.9 °F 62% 30.01 in 5.0 mi SE 5.8 mph - 0.14 in Rain Light Rain
3:02 PM 81.0 °F 84.1 °F 69.1 °F 67% 30.01 in 10.0 mi Calm Calm - 0.00 in Thunderstorm Mostly Cloudy
3:52 PM 81.0 °F 84.9 °F 71.1 °F 72% 30.01 in 9.0 mi Variable 4.6 mph - 0.01 in Thunderstorm Scattered Clouds
4:33 PM 73.9 °F - 68.0 °F 82% 30.04 in 7.0 mi NW 8.1 mph - 0.02 in Rain , Thunderstorm Light Thunderstorms and Rain
4:40 PM 72.0 °F - 68.0 °F 87% 30.05 in 1.5 mi NW 6.9 mph - 0.11 in Rain , Thunderstorm Heavy Thunderstorms and Rain
4:44 PM 70.0 °F - 68.0 °F 93% 30.04 in 0.5 mi North - - 0.26 in Fog , Rain , Thunderstorm Heavy Thunderstorms and Rain
4:52 PM 70.0 °F - 66.0 °F 87% 30.02 in 0.5 mi SSW 4.6 mph - 0.50 in Fog , Rain Heavy Rain
4:58 PM 70.0 °F - 66.9 °F 90% 30.03 in 1.2 mi NW 8.1 mph - 0.00 in Rain Light Rain
5:01 PM 71.1 °F - 66.9 °F 87% 30.02 in 3.0 mi WNW 6.9 mph - 0.00 in Rain Light Rain
5:52 PM 72.0 °F - 68.0 °F 87% 30.02 in 4.0 mi ENE 3.5 mph - 0.04 in Rain Rain
6:52 PM 72.0 °F - 68.0 °F 87% 30.03 in 9.0 mi SSE 10.4 mph - 0.02 in   Partly Cloudy
7:52 PM 71.1 °F - 68.0 °F 90% 30.04 in 10.0 mi Calm Calm - 0.01 in   Scattered Clouds
8:52 PM 70.0 °F - 68.0 °F 93% 30.05 in 10.0 mi ENE 4.6 mph - 0.01 in   Scattered Clouds
9:52 PM 70.0 °F - 68.0 °F 93% 30.10 in 7.0 mi SW 6.9 mph - N/A   Mostly Cloudy
10:10 PM 70.0 °F - 69.1 °F 97% 30.12 in 7.0 mi SW 3.5 mph - 0.00 in Rain Light Rain
10:19 PM 70.0 °F - 68.0 °F 93% 30.12 in 7.0 mi Calm Calm - 0.01 in Rain Light Rain
10:52 PM 71.1 °F - 68.0 °F 90% 30.10 in 8.0 mi SSE 3.5 mph - 0.02 in Rain Light Rain
11:52 PM 70.0 °F - 69.1 °F 97% 30.10 in 6.0 mi SW 3.5 mph - 0.00 in   Clear